This is the latest recevied weather packets stored in our database for station/object N7CW. If no packets are shown the sender has not sent any weather packets the latest 10 day(s).
| Time | Temp. | Humidity | Pressure | Rain* | Wind** | Luminosity | Snow |
|---|---|---|---|---|---|---|---|
| 1778045516 | 6.67° C | 52% | 1015.5 hPa | 0 mm | - | 0 W/m² | - |
| 1778045214 | 7.78° C | 49% | 1015.5 hPa | 0 mm | - | 0 W/m² | - |
| 1778044911 | 7.78° C | 49% | 1015.5 hPa | 0 mm | - | 0 W/m² | - |
| 1778044609 | 8.33° C | 47% | 1015.5 hPa | 0 mm | - | 0 W/m² | - |
| 1778044304 | 8.33° C | 47% | 1015.5 hPa | 0 mm | - | 0 W/m² | - |
| 1778044003 | 8.33° C | 47% | 1015.3 hPa | 0 mm | - | 0 W/m² | - |
| 1778043700 | 8.33° C | 48% | 1015.5 hPa | 0 mm | - | 0 W/m² | - |
| 1778043396 | 8.33° C | 48% | 1015.4 hPa | 0 mm | - | 0 W/m² | - |
| 1778043093 | 7.78° C | 48% | 1015.3 hPa | 0 mm | - | 0 W/m² | - |
| 1778042791 | 7.78° C | 49% | 1015.3 hPa | 0 mm | - | 0 W/m² | - |
| 1778042488 | 8.33° C | 49% | 1015.1 hPa | 0 mm | - | 0 W/m² | - |
| 1778042185 | 8.33° C | 49% | 1015.2 hPa | 0 mm | - | 0 W/m² | - |
| 1778041883 | 7.78° C | 49% | 1014.8 hPa | 0 mm | - | 0 W/m² | - |
| 1778041582 | 7.78° C | 49% | 1015.2 hPa | 0 mm | - | 0 W/m² | - |
| 1778041279 | 8.33° C | 49% | 1015.2 hPa | 0 mm | - | 0 W/m² | - |
| 1778040978 | 8.33° C | 48% | 1015.1 hPa | 0 mm | - | 0 W/m² | - |
| 1778040674 | 8.33° C | 48% | 1014.9 hPa | 0 mm | - | 0 W/m² | - |
| 1778040372 | 8.33° C | 48% | 1015.2 hPa | 0 mm | - | 0 W/m² | - |
| 1778040068 | 8.33° C | 48% | 1015.3 hPa | 0 mm | - | 0 W/m² | - |
| 1778039765 | 8.33° C | 48% | 1014.9 hPa | 0 mm | - | 0 W/m² | - |
| 1778039462 | 8.89° C | 47% | 1014.9 hPa | 0 mm | - | 0 W/m² | - |
| 1778039159 | 8.33° C | 48% | 1014.9 hPa | 0 mm | - | 0 W/m² | - |
| 1778038856 | 8.33° C | 48% | 1014.8 hPa | 0 mm | - | 0 W/m² | - |
| 1778038553 | 8.33° C | 48% | 1014.7 hPa | 0 mm | - | 0 W/m² | - |
| 1778038250 | 8.89° C | 47% | 1014.6 hPa | 0 mm | - | 0 W/m² | - |
* Rain latest hour (hover to see other rain measurements)
** Current wind speed in m/s (hover to see current wind gust speed)